Location: Les Jeannots
(43.2262°N, 5.5774°E)
Time: 19:08:30
(UTC+00:00)

ALOS 2 - Pass Details

Date: 05 July 2020
Orbit: 630 x 632 km, 97.9° (Epoch: 12 August)

Event Time Altitude Azimuth Distance (km) Brightness Sun altitude
Exits shadow 21:57:51 16° 87° (E) 1,630 4.5 -19.8°
Maximum altitude 21:59:10 19° 64° (ENE) 1,527 4.6 -20.0°
Drops below altitude 10° 22:02:12 10° 20° (NNE) 2,023 5.8 -20.2°
Sets 22:04:56 0° 3° (N) 2,936 7.1 -20.4°
